Regional Weather Roundup
Issued by NWS Tampa Bay Area, FL

Current Version | Previous Version | Text Only | Print | Product List | Glossary On
Versions: 1 2 3 4 5 6 7 8 9 10 11 12 13 14 15 16 17 18 19 20 21 22 23 24 25 26 27 28
000
NZUS99 KTBW 301211
RWRTBW
Regional Weather Roundup National Weather Service Ruskin Florida
800 AM EDT FRI SEP 30 2022


CITY           SKY/WX    TMP DP  RH WIND       PRES   REMARKS
Cross City     CLEAR     58  53  83 NW7       29.84R
Williston      CLOUDY    62  55  77 NW6       29.82R
Gainesville    CLOUDY    64  54  69 NW6       29.83R
Ocala          CLOUDY    63  55  75 W5        29.82R
Crystal River  FAIR      61  55  82 W6        29.84R
Inverness      CLOUDY    61  55  82 CALM      29.83R
Leesburg       MOCLDY    64  58  80 W7        29.81R
Orlando        CLOUDY    64  58  80 W9        29.80R
Brooksville    CLEAR     62  57  83 NW6       29.84R
Zephyrhills    CLEAR     63  57  83 NW7       29.84R
Lakeland Intl  CLEAR     63  55  77 N9        29.82
Winter Haven     N/A    N/A N/A N/A MISG      29.82R

CITY           SKY/WX    TMP DP  RH WIND       PRES   REMARKS
Tampa Intl       N/A    N/A N/A N/A MISG      29.83R
Tampa Exec     PTCLDY    64  59  82 MISG      29.84R
MacDill AFB    CLEAR     65  57  74 N12       29.79R
Plant City     PTCLDY    66  59  77 N6        29.84R
Clearwater     CLEAR     65  60  84 N9        29.83R
St Petersburg  CLEAR     67  61  81 N12       29.81R
Sarasota       CLEAR     66  59  78 N9        29.81R
Ft Myers       NOT AVBL
Ft Myers-RSW   NOT AVBL
Naples           N/A    N/A N/A N/A MISG      29.81R

STATION/POSITION SKY/WX   TEMP WIND        PRES    VSBY
                          AIR  DIR/SP/G
                          (F)  (DEG/KT/KT) (MB)    (MI)
Keaton Beach               60  340/  3/  6 1010.9R
039 Panama City            71   30/ 10/ 14 1013.2R
036 Bayport                72  360/ 10/ 14 1010.1R
Venice                     67   10/  9/ 11 1009.2R
Cedar Key                  63  330/  7/ 10 1010.3R

CITY           SKY/WX    TMP DP  RH WIND       PRES   REMARKS
Tallahassee    CLEAR     60  49  66 N6        29.89R
Daytona Beach  CLOUDY    65  58  78 W10       29.76R
Melbourne      CLEAR     63  60  90 W9        29.77R
W Palm Beach   CLEAR     67  62  84 NW7       29.79R
Miami          PTCLDY    70  64  81 VRB5      29.79R
Key West       CLEAR     76  70  82 N12       29.80R
San Juan, PR   MOSUNNY   79  73  83 CALM      29.85S
Cancun, MX     MOCLDY    73  73 100 NW7       29.85R




USA.gov is the U.S. government's official web portal to all federal, state and local government web resources and services.